[[{"header":{"parameterUnit":"m.s-1","parameterCategory":1,"la1":30.2991,"la2":30.254,"lo1":-89.0895,"lo2":-89.0444,"dy":0.0017,"dx":0.0017,"nx":28,"ny":28,"refTime":"2024-04-05T21:00:00:Z","depth":0,"parameterNumber":2,"parameterNumberName":"U-component_of_WINDS"},"data":[0,0,0,0,0,0,0,0,0,0,0,0,0,0,0,0,0,0,0,0,0,0,0,0,0,0,0,0,0,0,0,0,0,0,0,0,0,0,0,0,0,0,0,0,0,0,0,0,0,0,0,0,0,0,0,0,0,0,-1.9875,-1.9875,0,-1.989,-1.989,-1.989,-1.985,-1.9849,-1.9848,-1.9847,-1.9863,-1.9864,-1.9866,0,0,0,0,0,0,0,0,0,0,0,0,0,-1.9814,-1.9815,-1.9875,-1.9875,-1.9876,-1.989,-1.989,-1.989,-1.9851,-1.9849,-1.9848,-1.9846,-1.9862,-1.9864,-1.9866,0,0,0,0,0,0,0,0,0,0,0,0,0,-1.9836,-1.9816,-1.9875,-1.9857,-1.9856,-1.989,-1.989,-1.989,-1.9851,-1.9849,-1.9847,-1.9845,-1.9861,-1.9864,-1.9866,-1.9918,0,0,-1.9873,-1.9874,0,0,0,0,0,0,0,0,-1.9835,-1.9838,-1.986,-1.9859,-1.9857,-1.9866,-1.9874,-1.99,-1.9851,-1.9853,-1.9847,-1.9845,-1.9865,-1.9867,-1.9874,-1.9919,-1.9919,-1.9873,-1.9875,-1.9876,-1.9877,0,0,0,0,0,0,0,-1.9833,-1.9837,-1.9881,-1.986,-1.9859,-1.9849,-1.985,-1.9879,-1.9869,-1.9853,-1.985,-1.9852,-1.9864,-1.9872,-1.9874,-1.9919,-1.9873,-1.9876,-1.9877,-1.9878,-2.0007,-2.0009,0,0,0,0,0,0,-1.9834,-1.9836,-1.988,-1.9881,-1.9841,-1.9852,-1.9853,-1.9865,-1.9869,-1.9868,-1.9854,-1.985,-1.9869,-1.9872,-1.9875,-1.9935,-1.9876,-1.9878,-1.988,-2.0005,-2.0008,-2.001,0,0,0,0,0,0,-1.9833,-1.9838,-1.988,-1.9858,-1.9863,-1.9855,-1.9869,-1.9867,-1.9874,-1.987,-1.9868,-1.9863,-1.9868,-1.9871,-1.9907,-1.9935,-1.9879,-1.9881,-2.0003,-2.0006,-2.0009,-2.0057,0,0,0,0,0,0,-1.9831,-1.9838,-1.9857,-1.9859,-1.9864,-1.9912,-1.9871,-1.9868,-1.9878,-1.9874,-1.9878,-1.9877,-1.9866,-1.9904,-1.991,-1.9938,-1.9883,-2.0,-2.0004,-2.0008,-2.0053,-2.0062,-2.0069,0,0,0,0,0,-1.9829,-1.9871,-1.9858,-1.9864,-1.9888,-1.9914,-1.9917,-1.9903,-1.9881,-1.99,-1.9897,-1.9877,-1.9932,-1.9908,-1.9914,-1.9943,-1.9998,-2.0003,-2.0008,-2.005,-2.006,-2.0069,0,0,0,0,0,0,-1.9873,-1.987,-1.9857,-1.99,-1.9908,-1.9907,-1.9931,-1.9915,-1.9929,-1.9924,-1.9907,-1.9909,-1.9948,-1.9949,-1.9923,-1.9994,-1.9961,-1.9967,-1.9991,-2.0001,-2.0009,-2.0007,-1.9885,0,0,0,0,0,-1.9887,-1.9908,-1.9905,-1.9944,-1.9948,-1.9939,-1.995,-1.9939,-1.9946,-1.9949,-1.9949,-1.9957,-1.9976,-1.9988,-2.0006,-2.0053,-2.0054,-2.0076,-2.0084,-2.0091,-2.0096,-2.0121,-2.0131,-2.0025,-2.0025,-2.0025,0,0,-1.9918,-1.9919,-1.9933,-1.9953,-1.9957,-1.9979,-1.9942,-1.9967,-1.9984,-1.9953,-1.9987,-1.9987,-1.9995,-2.0037,-2.0056,-2.0039,-2.0126,-2.0097,-2.0102,-2.0103,-2.0127,-2.0137,-2.0146,-2.0028,-2.0027,-2.0027,0,0,-1.9985,-1.9988,-2.002,-2.0025,-2.0032,-2.0026,-2.0034,-2.0036,-2.0035,-2.0069,-2.0046,-2.0066,-2.0099,-2.0105,-2.0113,-2.0183,-2.0165,-2.0189,-2.023,-2.0255,-2.0263,-2.0271,-2.0295,-2.0304,-2.0194,-2.0194,-2.0195,0,-2.0022,-2.0054,-2.0039,-2.0066,-2.0075,-2.0048,-2.0081,-2.0087,-2.0099,-2.0106,-2.0088,-2.0129,-2.0132,-2.0175,-2.0192,-2.0199,-2.0208,-2.0188,-2.0263,-2.027,-2.0277,-2.03,-2.031,-2.0197,-2.0197,-2.0197,-2.0196,0,-2.0099,-2.0122,-2.0147,-2.016,-2.0172,-2.0202,-2.0191,-2.0205,-2.0194,-2.019,-2.0225,-2.0228,-2.0245,-2.0255,-2.0244,-2.0297,-2.0286,-2.0266,-2.0233,-2.029,-2.0312,-2.0321,-2.0201,-2.02,-2.02,-2.0199,0,0,-2.0193,-2.0197,-2.0207,-2.0212,-2.0218,-2.0236,-2.0265,-2.0281,-2.0294,-2.0304,-2.0327,-2.0356,-2.0337,-2.0346,-2.0335,-2.0357,-2.0412,-2.0334,-2.0334,-2.0348,-2.0471,-2.0486,-2.0497,-2.0401,-2.0402,-2.0404,-2.047,0,-2.0259,-2.0308,-2.0295,-2.0344,-2.0365,-2.034,-2.0365,-2.0372,-2.0369,-2.0387,-2.0384,-2.0404,-2.0378,-2.0383,-2.0404,-2.0401,-2.0437,-2.0396,-2.0422,-2.0424,-2.0421,-2.0508,-2.0524,-2.0587,-2.0479,-2.048,-2.0481,0,-2.0342,-2.0355,-2.0405,-2.0408,-2.0416,-2.0439,-2.0453,-2.0471,-2.0478,-2.0474,-2.0484,-2.047,-2.0498,-2.0466,-2.0505,-2.0478,-2.0488,-2.0488,-2.0491,-2.0492,-2.0456,-2.0512,-2.0606,-2.0616,-2.0494,-2.0493,-2.0492,0,-2.0406,-2.0435,-2.0469,-2.0475,-2.0479,-2.0495,-2.0498,-2.0503,-2.0514,-2.0527,-2.0534,-2.055,-2.0559,-2.0572,-2.0562,-2.0539,-2.0603,-2.057,-2.0601,-2.0601,-2.0615,-2.0614,-2.0713,-2.0623,-2.0622,-2.0622,-2.0622,0,-2.048,-2.0512,-2.0498,-2.0519,-2.0554,-2.054,-2.0575,-2.0575,-2.058,-2.06,-2.058,-2.06,-2.0586,-2.0605,-2.0597,-2.0631,-2.0635,-2.0633,-2.0631,-2.0635,-2.0635,-2.0641,-2.0636,-2.0625,-2.0624,-2.0624,-2.0623,0,-2.0557,-2.0549,-2.0584,-2.0585,-2.0586,-2.0612,-2.0613,-2.0633,-2.0628,-2.0655,-2.066,-2.0654,-2.0675,-2.0667,-2.0689,-2.0684,-2.0727,-2.0719,-2.0725,-2.0723,-2.0754,-2.0751,-2.086,-2.0873,-2.0774,-2.0775,-2.0776,0,-2.0605,-2.0629,-2.0632,-2.0644,-2.0648,-2.0668,-2.0679,-2.0666,-2.0678,-2.0689,-2.0707,-2.0727,-2.0741,-2.0776,-2.0774,-2.0791,-2.0783,-2.082,-2.0786,-2.0789,-2.0784,-2.0782,-2.0784,-2.0827,-2.0828,-2.0829,-2.083,0,-2.0691,-2.0685,-2.0702,-2.0717,-2.0731,-2.0742,-2.0752,-2.0763,-2.075,-2.0765,-2.0787,-2.0798,-2.0821,-2.0841,-2.0856,-2.0859,-2.0843,-2.084,-2.0849,-2.0853,-2.0855,-2.0854,-2.0743,-2.0838,-2.0837,-2.0836,-2.0836,-2.0836,-2.0754,-2.0774,-2.078,-2.0799,-2.0805,-2.0814,-2.0833,-2.0831,-2.0848,-2.0866,-2.0857,-2.0882,-2.0889,-2.0907,-2.0913,-2.0932,-2.0918,-2.093,-2.0933,-2.0936,-2.094,-2.0852,-2.0935,-2.0935,-2.0934,-2.0934,-2.0934,0,-2.0839,-2.0841,-2.0859,-2.0873,-2.0888,-2.0871,-2.0881,-2.0895,-2.0917,-2.0924,-2.0939,-2.0964,-2.0983,-2.0982,-2.0999,-2.1015,-2.1008,-2.102,-2.1019,-2.102,-2.0952,-2.0943,-2.1026,-2.1026,-2.1026,-2.1026,-2.1026,-2.1026,-2.0885,-2.0918,-2.0914,-2.095,-2.0952,-2.0975,-2.0983,-2.0991,-2.0997,-2.1026,-2.1041,-2.104,-2.1045,-2.1062,-2.1079,-2.1078,-2.1086,-2.1101,-2.1097,-2.1034,-2.1025,-2.1016,-2.1007,-2.1102,-2.1103,-2.1164,-2.1164,-2.1165]},{"header":{"parameterUnit":"m.s-1","parameterCategory":1,"la1":30.2991,"la2":30.254,"lo1":-89.0895,"lo2":-89.0444,"dy":0.0017,"dx":0.0017,"nx":28,"ny":28,"refTime":"2024-04-05T21:00:00:Z","depth":0,"parameterNumber":3,"parameterNumberName":"V-component_of_WINDS"},"data":[0,0,0,0,0,0,0,0,0,0,0,0,0,0,0,0,0,0,0,0,0,0,0,0,0,0,0,0,0,0,0,0,0,0,0,0,0,0,0,0,0,0,0,0,0,0,0,0,0,0,0,0,0,0,0,0,0,0,3.8892,3.8892,0,3.8891,3.8891,3.8891,3.8812,3.881,3.8808,3.8806,3.8804,3.8806,3.8808,0,0,0,0,0,0,0,0,0,0,0,0,0,3.8825,3.8827,3.8892,3.8892,3.8892,3.8891,3.8891,3.8891,3.8812,3.881,3.8807,3.8805,3.8804,3.8806,3.8808,0,0,0,0,0,0,0,0,0,0,0,0,0,3.8842,3.8827,3.8892,3.8853,3.8849,3.8891,3.8891,3.8891,3.8813,3.881,3.8807,3.8804,3.8803,3.8806,3.8809,3.8888,0,0,3.8817,3.8818,0,0,0,0,0,0,0,0,3.8841,3.8845,3.8858,3.8855,3.8852,3.8848,3.8867,3.889,3.8814,3.8827,3.8806,3.8802,3.8822,3.8823,3.8829,3.8888,3.8888,3.8817,3.8819,3.882,3.8821,0,0,0,0,0,0,0,3.884,3.8844,3.8891,3.8859,3.8855,3.8835,3.8834,3.8871,3.8841,3.8825,3.8819,3.882,3.8819,3.8827,3.8829,3.8888,3.8817,3.882,3.8822,3.8823,3.9009,3.9012,0,0,0,0,0,0,3.8845,3.8844,3.8891,3.8891,3.8839,3.8838,3.8837,3.8852,3.8841,3.8836,3.8823,3.8817,3.8823,3.8825,3.8828,3.8918,3.882,3.8823,3.8825,3.9006,3.901,3.9013,0,0,0,0,0,0,3.8843,3.885,3.8891,3.8866,3.887,3.8843,3.8861,3.8854,3.8861,3.8839,3.8833,3.8836,3.8821,3.8824,3.8873,3.8917,3.8824,3.8827,3.9002,3.9007,3.9012,3.9101,0,0,0,0,0,0,3.8842,3.885,3.888,3.8867,3.8872,3.8937,3.8863,3.8856,3.8867,3.8858,3.885,3.8846,3.8819,3.8869,3.8876,3.8919,3.8829,3.8998,3.9004,3.901,3.9094,3.9108,3.912,0,0,0,0,0,3.884,3.8905,3.8882,3.8888,3.8909,3.894,3.8942,3.891,3.8871,3.89,3.8886,3.8846,3.8912,3.8875,3.8882,3.8927,3.8995,3.9003,3.901,3.9088,3.9105,3.912,0,0,0,0,0,0,3.8923,3.8903,3.8876,3.894,3.8942,3.8926,3.8963,3.893,3.8943,3.8935,3.8894,3.8893,3.8948,3.8943,3.8902,3.9002,3.8946,3.8955,3.9003,3.902,3.9033,3.9032,3.8831,0,0,0,0,0,3.8949,3.8976,3.8957,3.9015,3.9017,3.899,3.9002,3.8978,3.8978,3.8979,3.8968,3.897,3.899,3.9005,3.9023,3.9093,3.9089,3.9127,3.9141,3.9152,3.916,3.9194,3.9211,3.9038,3.9037,3.9037,0,0,3.9003,3.8995,3.9015,3.9031,3.903,3.9058,3.8991,3.9025,3.9045,3.8984,3.9028,3.9021,3.902,3.908,3.9105,3.9077,3.9207,3.9161,3.917,3.9172,3.9204,3.922,3.9235,3.9043,3.9042,3.9041,0,0,3.9114,3.9112,3.9159,3.9159,3.9158,3.9139,3.9151,3.914,3.9132,3.9177,3.9131,3.9155,3.9192,3.9193,3.9199,3.9311,3.9274,3.9318,3.9387,3.9422,3.9435,3.9447,3.9485,3.95,3.9326,3.9327,3.9327,0,3.9181,3.9222,3.9187,3.9223,3.9231,3.9177,3.9224,3.9226,3.9231,3.9238,3.9206,3.9251,3.9247,3.9305,3.9332,3.9339,3.935,3.9318,3.9436,3.9448,3.9458,3.9494,3.9509,3.9332,3.9331,3.9331,3.933,0,3.9303,3.9332,3.937,3.9376,3.9388,3.943,3.9401,3.9418,3.9392,3.9377,3.9422,3.9416,3.9431,3.9444,3.9419,3.9498,3.948,3.9443,3.9386,3.948,3.9513,3.9527,3.9339,3.9337,3.9336,3.9334,0,0,3.9466,3.9452,3.9466,3.9467,3.9462,3.9484,3.9523,3.9537,3.9552,3.9558,3.9588,3.9621,3.9587,3.9593,3.9568,3.9599,3.9686,3.9558,3.9557,3.958,3.977,3.9797,3.9814,3.9662,3.9665,3.9667,3.977,0,3.9572,3.9637,3.9607,3.9675,3.97,3.965,3.9683,3.9683,3.967,3.969,3.9676,3.9699,3.9652,3.9655,3.9684,3.9669,3.9723,3.9662,3.9689,3.969,3.9689,3.9831,3.9859,3.9957,3.9783,3.9785,3.9787,0,3.9705,3.9715,3.9786,3.9775,3.9784,3.9815,3.9825,3.9845,3.9844,3.9833,3.984,3.9808,3.9844,3.9789,3.9838,3.9797,3.9807,3.9802,3.9805,3.9804,3.9743,3.9833,3.9987,4.0001,3.9807,3.9805,3.9804,0,3.9815,3.9846,3.9892,3.9895,3.9884,3.9906,3.9903,3.9899,3.9909,3.9919,3.9925,3.9939,3.9946,3.9958,3.993,3.9893,3.9983,3.9926,3.9973,3.9974,3.9993,3.9991,4.0149,4.0002,4.0002,4.0002,4.0002,0,3.9935,3.998,3.9941,3.9969,4.0017,3.9982,4.0031,4.0022,4.0018,4.0043,4.0001,4.0025,3.9988,4.0009,3.9988,4.0031,4.0035,4.0026,4.0019,4.0029,4.003,4.0033,4.0025,4.0006,4.0005,4.0004,4.0004,0,4.0065,4.0041,4.0087,4.0073,4.007,4.0106,4.0093,4.0119,4.0103,4.0135,4.014,4.0116,4.0138,4.0112,4.0132,4.0117,4.0175,4.016,4.0175,4.017,4.0218,4.0214,4.0382,4.0402,4.0245,4.0246,4.0247,0,4.0143,4.0176,4.0165,4.0178,4.0177,4.02,4.021,4.0177,4.0189,4.019,4.0215,4.0234,4.0246,4.0284,4.0267,4.0282,4.0266,4.0324,4.0268,4.0275,4.0264,4.0262,4.0264,4.0335,4.0337,4.0338,4.0339,0,4.0283,4.0269,4.0285,4.0298,4.0311,4.0319,4.0324,4.0338,4.0303,4.0319,4.0341,4.0351,4.0371,4.0389,4.04,4.0395,4.0362,4.0357,4.0369,4.0378,4.0385,4.038,4.0205,4.0353,4.0352,4.0351,4.035,4.035,4.0388,4.0414,4.041,4.0429,4.0429,4.0435,4.0457,4.0444,4.0461,4.0475,4.0454,4.0481,4.0479,4.0489,4.0489,4.0509,4.0484,4.0502,4.0505,4.051,4.0516,4.0383,4.0512,4.0511,4.0511,4.051,4.051,0,4.0524,4.0519,4.0537,4.0544,4.056,4.0527,4.053,4.0545,4.0569,4.057,4.0583,4.0607,4.0625,4.061,4.0625,4.0644,4.0629,4.0649,4.0646,4.0645,4.0539,4.0526,4.0661,4.0661,4.0661,4.0661,4.0661,4.0661,4.0596,4.0638,4.0624,4.0666,4.066,4.0686,4.069,4.0695,4.0695,4.0724,4.0738,4.0729,4.0723,4.0736,4.0751,4.0746,4.0753,4.0778,4.0768,4.0668,4.0653,4.0639,4.0627,4.078,4.078,4.0872,4.0873,4.0874]}]]